Weather History for Siemreap, Cambodia

Change the Weather History Date:

Friday, March 28, 2014

  Actual Average Record
Temperature  
Mean Temperature 88 °F -  
Max Temperature 95 °F - - ()
Min Temperature 80 °F - - ()
Cooling Degree Days 22    
Growing Degree Days 38 (Base 50)    
Moisture  
Dew Point 76 °F    
Average Humidity 70    
Maximum Humidity 89    
Minimum Humidity 44    
Precipitation  
Precipitation 0.00 in - - ()
Sea Level Pressure  
Sea Level Pressure 29.76 in    
Wind  
Wind Speed 5 mph ()    
Max Wind Speed 9 mph    
Max Gust Speed -    
Visibility 5.9 miles    
Events      
T = Trace of Precipitation, MM = Missing Value Source: Averaged Metar Reports

Daily Weather History Graph

Daily Weather History Graph

Search for Another Location

Airport:

Trip Planner

Search our weather history database for the weather conditions in past years. The results will help you decide how hot, cold, wet, or windy it might be!

Date:

Astronomy

Mar. 28, 2014 Rise Set
Actual Time 6:03 AM ICT 6:16 PM ICT
Civil Twilight 5:42 AM ICT 6:37 PM ICT
Nautical Twilight 5:17 AM ICT 7:02 PM ICT
Astronomical Twilight 4:52 AM ICT 7:26 PM ICT
Moon 3:46 AM ICT (3/28) 3:58 PM ICT (3/28)
Length of Visible Light 12h 54m
Length of Day
12h 12m
Waning Crescent, 9% of the Moon is Illuminated
Mar 28
Waning Crescent
Mar 31
New
Apr 7
First Quarter
Apr 15
Full
Apr 22
Last Quarter

Hourly Weather History & Observations

Time (ICT) Temp. Heat Index Dew Point Humidity Pressure Visibility Wind Dir Wind Speed Gust Speed Precip Events Conditions
12:00 AM 84.2 °F 96.1 °F 78.8 °F 84% 29.74 in 5.6 mi WSW 3.5 mph - N/A   Unknown
12:30 AM 84.2 °F 96.1 °F 78.8 °F 84% 29.74 in 5.6 mi West 6.9 mph - N/A   Unknown
1:00 AM 84.2 °F 96.1 °F 78.8 °F 84% 29.74 in 5.6 mi West 6.9 mph - N/A   Unknown
7:00 AM 80.6 °F 87.1 °F 77.0 °F 89% 29.80 in 5.6 mi ENE 4.6 mph - N/A   Scattered Clouds
7:30 AM 82.4 °F 90.9 °F 77.0 °F 84% 29.80 in 5.6 mi East 4.6 mph - N/A   Scattered Clouds
8:00 AM 82.4 °F 90.9 °F 77.0 °F 84% 29.83 in 6.2 mi East 6.9 mph - N/A   Scattered Clouds
8:30 AM 84.2 °F 94.1 °F 77.0 °F 79% 29.83 in 6.2 mi SE 4.6 mph - N/A   Scattered Clouds
9:00 AM 86.0 °F 96.9 °F 77.0 °F 74% 29.86 in 6.2 mi East 3.5 mph - N/A   Scattered Clouds
9:30 AM 87.8 °F 99.7 °F 77.0 °F 70% 29.86 in 6.2 mi SSE 8.1 mph - N/A   Scattered Clouds
10:00 AM 87.8 °F 99.7 °F 77.0 °F 70% 29.86 in 6.2 mi SSE 4.6 mph - N/A   Mostly Cloudy
10:30 AM 87.8 °F 99.7 °F 77.0 °F 70% 29.83 in 6.2 mi SSE 6.9 mph - N/A   Mostly Cloudy
11:00 AM 89.6 °F 102.2 °F 77.0 °F 66% 29.83 in 6.2 mi SSE 8.1 mph - N/A   Mostly Cloudy
12:00 PM 89.6 °F 102.2 °F 77.0 °F 66% 29.80 in 6.2 mi WSW 6.9 mph - N/A   Mostly Cloudy
12:30 PM 89.6 °F 102.2 °F 77.0 °F 66% 29.77 in 6.2 mi ENE 6.9 mph - N/A   Mostly Cloudy
1:00 PM 93.2 °F 105.0 °F 75.2 °F 56% 29.77 in 6.2 mi WNW 9.2 mph - N/A   Scattered Clouds
1:30 PM 93.2 °F 105.0 °F 75.2 °F 56% 29.74 in 6.2 mi West 5.8 mph - N/A   Scattered Clouds
2:00 PM 93.2 °F 102.4 °F 73.4 °F 52% 29.74 in 6.2 mi SW 2.3 mph - N/A   Scattered Clouds
2:30 PM 95.0 °F 103.2 °F 71.6 °F 47% 29.71 in 6.2 mi SSW 5.8 mph - N/A   Scattered Clouds
3:00 PM 95.0 °F 101.3 °F 69.8 °F 44% 29.68 in 6.2 mi South 2.3 mph - N/A   Scattered Clouds
3:30 PM 93.2 °F 98.8 °F 69.8 °F 46% 29.68 in 6.2 mi South 6.9 mph - N/A   Scattered Clouds
4:00 PM 93.2 °F 100.5 °F 71.6 °F 49% 29.68 in 6.2 mi SW 9.2 mph - N/A   Scattered Clouds
4:30 PM 91.4 °F 100.1 °F 73.4 °F 55% 29.68 in 6.2 mi SSW 6.9 mph - N/A   Scattered Clouds
5:00 PM 91.4 °F 100.1 °F 73.4 °F 55% 29.68 in 6.2 mi SSE 6.9 mph - N/A   Scattered Clouds
6:30 PM 89.6 °F 102.2 °F 77.0 °F 66% 29.71 in 5.6 mi South 4.6 mph - N/A   Scattered Clouds
7:00 PM 87.8 °F 99.7 °F 77.0 °F 70% 29.71 in 5.6 mi SW 8.1 mph - N/A   Scattered Clouds
7:30 PM 86.0 °F 96.9 °F 77.0 °F 74% 29.71 in 5.6 mi SSW 5.8 mph - N/A   Scattered Clouds
8:00 PM 84.2 °F 94.1 °F 77.0 °F 79% 29.74 in 5.6 mi WSW 5.8 mph - N/A   Scattered Clouds
8:30 PM 84.2 °F 90.9 °F 73.4 °F 70% 29.74 in 5.6 mi WSW 5.8 mph - N/A   Scattered Clouds
9:00 PM 84.2 °F 90.9 °F 73.4 °F 70% 29.77 in 5.6 mi WSW 5.8 mph - N/A   Scattered Clouds
9:30 PM 82.4 °F 89.5 °F 75.2 °F 79% 29.77 in 5.6 mi SW 6.9 mph - N/A   Scattered Clouds
10:00 PM 80.6 °F 86.2 °F 75.2 °F 84% 29.77 in 5.6 mi SW 4.6 mph - N/A   Scattered Clouds
10:30 PM 80.6 °F 86.2 °F 75.2 °F 84% 29.77 in 5.6 mi SW 4.6 mph - N/A   Scattered Clouds
11:00 PM 80.6 °F 86.2 °F 75.2 °F 84% 29.77 in 5.6 mi SSW 3.5 mph - N/A   Scattered Clouds
11:30 PM 80.6 °F 86.2 °F 75.2 °F 84% 29.77 in 5.6 mi SW 3.5 mph - N/A   Scattered Clouds